ECHO 2 DEB (METAL OBJ), 743

Orbit data source: Space-Track

ECHO 2 DEB (METAL OBJ), 743 is space debris in LEO originally from a launch on Sat, 25 Jan 1964 UTC launched from the Air Force Western Test Range (AFWTR). Debris objects in space refer to the collection of defunct objects orbiting the Earth. Examples of debris include non-operational satellites, rocket bodies, and fragments generated from explosions, collisions, or faulty payload assembly.

Loading next visibility...
Identifier
743, 1964-004D
Orbit
LEO
Country
Flag of USUS
Related business
Manufacturer
Grummann
Mission
Spacecraft
Bus & Motor
ECHO CANISTER, Unknown motor
Mass
35 kg wet, 35 kg dry
Launch date (UTC)
1964-01-25 (62 years ago)
Launch vehicle
Unknown
Launch site
Air Force Western Test Range (AFWTR)
Object type
Payload
Rocket body
Debris
Shape & HBR
Unknown
Radar Cross Section
1.000 m², Medium (>0.1 m² and < 1m²)

Expand to show TLE details & history
Last TLE update: 6 hours ago

TLE from 6 hours ago
0 ECHO 2 DEB (METAL OBJ)
1 00743U 64004D   25260.29775096  .00000043  00000-0  71108-4 0  9996
2 00743  81.5239  28.5977 0173052 311.0290  61.4814 13.26825121981942
Epoch: 2025-09-17T07:08Z
TLE epoch observation values (Epoch: 2025-09-17T07:08:45.682Z)
Latitude
14.08295°
Longitude
-72.93684°
Altitude
1,100.314 km
Speed
7.332 km/s
True Right ascension
02h 02m 55s
True Declination
14° 00' 21"
Sunlit
Object was in full shadow at epoch
Visualization orbit readout
Latitude
Unknown
Longitude
Unknown
Altitude
Unknown
Speed
Unknown
Apparent Right ascension
Unknown
Apparent Declination
Unknown
Sunlit
N/A
Visualization observer readout
Local Sidereal Time
05:34:17
Azimuth
Unknown
Elevation
Unknown
Doppler factor
Unknown
Orbital elements
Apogee altitude
1,286.416 km
Perigee altitude
1,025.655 km
Semi-major axis
7,534.172 km
Eccentricity
0.01731
Inclination
81.5239°
RAAN
28.5977°
Arg. of periapsis
311.029°
True anomaly
63.24171°
Mean anomaly
61.4814°
Eccentric anomaly
62.35976°
Mean motion
3.31887 °/min
Orbital period
108.47 mins
BSTAR
0.000071108
Loading maneuver chart data...
Computing Atmospheric mass density...
Loading historical data...
Loading historical data...
Loading historical data...
Loading historical data...
Loading historical data...
Loading historical data...
Loading historical data...

Documentation

Showing up to 5 results
|